Time,TemperatureF,DewpointF,PressureIn,WindDirection,WindDirectionDegrees,WindSpeedMPH,WindSpeedGustMPH,Humidity,HourlyPrecipIn,Conditions,Clouds,dailyrainin,SoftwareType,DateUTC
2013-02-14 00:00:00,28.9,27.6,29.66,ESE,115,0.0,3.0,95,0.00,,---,0.00,VWS V14.01,2013-02-14 05:00:00,
2013-02-14 00:05:00,28.7,27.5,29.66,ESE,122,0.0,1.0,95,0.00,,---,0.00,VWS V14.01,2013-02-14 05:05:00,
2013-02-14 00:10:00,28.3,27.0,29.66,ESE,120,0.0,2.0,95,0.00,,---,0.00,VWS V14.01,2013-02-14 05:10:00,
2013-02-14 00:15:00,28.1,26.9,29.66,East,91,0.0,2.0,95,0.00,,---,0.00,VWS V14.01,2013-02-14 05:15:00,
2013-02-14 00:20:00,27.6,26.4,29.66,East,86,0.0,2.0,95,0.00,,---,0.00,VWS V14.01,2013-02-14 05:20:00,
2013-02-14 00:25:00,26.9,25.7,29.66,ESE,114,0.0,2.0,95,0.00,,---,0.00,VWS V14.01,2013-02-14 05:25:00,
2013-02-14 00:30:00,27.1,25.9,29.66,SE,133,0.0,2.0,95,0.00,,---,0.00,VWS V14.01,2013-02-14 05:30:00,
2013-02-14 00:31:00,27.0,25.8,29.66,SE,130,0.0,2.0,95,0.00,,---,0.00,VWS V14.01,2013-02-14 05:31:00,
2013-02-14 00:36:00,27.1,26.1,29.66,SE,143,1.0,1.0,96,0.00,,---,0.00,VWS V14.01,2013-02-14 05:36:00,
2013-02-14 00:41:00,27.9,26.9,29.67,South,173,3.0,4.0,96,0.00,,---,0.00,VWS V14.01,2013-02-14 05:41:00,
2013-02-14 00:46:00,28.8,27.8,29.67,South,173,3.0,6.0,96,0.00,,---,0.00,VWS V14.01,2013-02-14 05:46:00,
2013-02-14 00:51:00,28.6,27.6,29.66,South,172,3.0,6.0,96,0.00,,---,0.00,VWS V14.01,2013-02-14 05:51:00,
2013-02-14 00:56:00,28.9,27.9,29.66,South,179,3.0,6.0,96,0.00,,---,0.00,VWS V14.01,2013-02-14 05:56:00,
2013-02-14 01:00:00,28.9,27.9,29.66,SSE,168,2.0,6.0,96,0.00,,---,0.00,VWS V14.01,2013-02-14 06:00:00,
2013-02-14 01:01:00,29.0,28.0,29.66,South,169,1.0,6.0,96,0.00,,---,0.00,VWS V14.01,2013-02-14 06:01:00,
2013-02-14 01:06:00,28.5,27.5,29.66,SSE,158,2.0,4.0,96,0.00,,---,0.00,VWS V14.01,2013-02-14 06:06:00,
2013-02-14 01:11:00,28.4,27.4,29.66,SSE,156,3.0,4.0,96,0.00,,---,0.00,VWS V14.01,2013-02-14 06:11:00,
2013-02-14 01:16:00,28.4,27.4,29.66,SE,141,1.0,4.0,96,0.00,,---,0.00,VWS V14.01,2013-02-14 06:16:00,
2013-02-14 01:21:00,28.3,27.3,29.66,SSE,156,2.0,4.0,96,0.00,,---,0.00,VWS V14.01,2013-02-14 06:21:00,
2013-02-14 01:26:00,28.7,27.7,29.66,SSE,150,2.0,4.0,96,0.00,,---,0.00,VWS V14.01,2013-02-14 06:26:00,
2013-02-14 01:30:00,28.9,27.9,29.66,SSE,159,3.0,7.0,96,0.00,,---,0.00,VWS V14.01,2013-02-14 06:30:00,
2013-02-14 01:31:00,28.9,27.9,29.66,SSE,163,2.0,7.0,96,0.00,,---,0.00,VWS V14.01,2013-02-14 06:31:00,
2013-02-14 01:36:00,29.0,28.0,29.66,SSE,158,1.0,5.0,96,0.00,,---,0.00,VWS V14.01,2013-02-14 06:36:00,
2013-02-14 01:41:00,28.9,27.9,29.66,South,169,1.0,6.0,96,0.00,,---,0.00,VWS V14.01,2013-02-14 06:41:00,
2013-02-14 01:46:00,29.0,28.0,29.66,SSE,166,2.0,6.0,96,0.00,,---,0.00,VWS V14.01,2013-02-14 06:46:00,
2013-02-14 01:51:00,29.1,28.1,29.66,SSE,158,1.0,6.0,96,0.00,,---,0.00,VWS V14.01,2013-02-14 06:51:00,
2013-02-14 01:56:00,28.3,27.3,29.66,ESE,104,3.0,6.0,96,0.00,,---,0.00,VWS V14.01,2013-02-14 06:56:00,
2013-02-14 02:00:00,28.4,27.4,29.66,ESE,117,3.0,6.0,96,0.00,,---,0.00,VWS V14.01,2013-02-14 07:00:00,
2013-02-14 02:01:00,28.4,27.4,29.66,ESE,115,3.0,6.0,96,0.00,,---,0.00,VWS V14.01,2013-02-14 07:01:00,
2013-02-14 02:06:00,28.5,27.5,29.66,ENE,75,5.0,7.0,96,0.00,,---,0.00,VWS V14.01,2013-02-14 07:06:00,
2013-02-14 02:11:00,28.7,27.7,29.66,ENE,75,1.0,7.0,96,0.00,,---,0.00,VWS V14.01,2013-02-14 07:11:00,
2013-02-14 02:16:00,28.7,27.7,29.66,East,86,1.0,7.0,96,0.00,,---,0.00,VWS V14.01,2013-02-14 07:16:00,
2013-02-14 02:21:00,28.8,27.8,29.66,ENE,71,2.0,7.0,96,0.00,,---,0.00,VWS V14.01,2013-02-14 07:21:00,
2013-02-14 02:26:00,28.8,27.8,29.66,ENE,71,4.0,7.0,96,0.00,,---,0.00,VWS V14.01,2013-02-14 07:26:00,
2013-02-14 02:30:00,29.2,28.0,29.66,ESE,113,1.0,7.0,95,0.00,,---,0.00,VWS V14.01,2013-02-14 07:30:00,
2013-02-14 02:31:00,29.2,28.0,29.66,ESE,113,1.0,7.0,95,0.00,,---,0.00,VWS V14.01,2013-02-14 07:31:00,
2013-02-14 02:36:00,29.3,28.0,29.66,ESE,107,0.0,3.0,95,0.00,,---,0.00,VWS V14.01,2013-02-14 07:36:00,
2013-02-14 02:41:00,29.3,28.0,29.66,ESE,110,0.0,4.0,95,0.00,,---,0.00,VWS V14.01,2013-02-14 07:41:00,
2013-02-14 02:46:00,29.3,28.0,29.66,ESE,115,3.0,4.0,95,0.00,,---,0.00,VWS V14.01,2013-02-14 07:46:00,
2013-02-14 02:51:00,29.2,28.0,29.66,ESE,116,4.0,5.0,95,0.00,,---,0.00,VWS V14.01,2013-02-14 07:51:00,
2013-02-14 02:56:00,29.2,28.0,29.66,ESE,117,4.0,5.0,95,0.00,,---,0.00,VWS V14.01,2013-02-14 07:56:00,
2013-02-14 03:00:00,29.2,28.0,29.66,ESE,118,4.0,5.0,95,0.00,,---,0.00,VWS V14.01,2013-02-14 08:00:00,
2013-02-14 03:01:00,29.2,28.0,29.66,ESE,118,4.0,5.0,95,0.00,,---,0.00,VWS V14.01,2013-02-14 08:01:00,
2013-02-14 03:06:00,29.0,28.0,29.66,ENE,65,2.0,4.0,96,0.00,,---,0.00,VWS V14.01,2013-02-14 08:06:00,
2013-02-14 03:11:00,29.0,28.0,29.65,ENE,65,0.0,4.0,96,0.00,,---,0.00,VWS V14.01,2013-02-14 08:11:00,
2013-02-14 03:16:00,28.9,27.6,29.65,ENE,65,0.0,4.0,95,0.00,,---,0.00,VWS V14.01,2013-02-14 08:16:00,
2013-02-14 03:21:00,29.1,28.1,29.65,ENE,67,4.0,4.0,96,0.00,,---,0.00,VWS V14.01,2013-02-14 08:21:00,
2013-02-14 03:26:00,29.3,28.3,29.65,ENE,62,0.0,4.0,96,0.00,,---,0.00,VWS V14.01,2013-02-14 08:26:00,
2013-02-14 03:30:00,29.4,28.1,29.65,ESE,121,0.0,4.0,95,0.00,,---,0.00,VWS V14.01,2013-02-14 08:30:00,
2013-02-14 03:31:00,29.4,28.1,29.65,ESE,121,0.0,0.0,95,0.00,,---,0.00,VWS V14.01,2013-02-14 08:31:00,
2013-02-14 03:36:00,29.4,28.1,29.65,ESE,114,0.0,1.0,95,0.00,,---,0.00,VWS V14.01,2013-02-14 08:36:00,
2013-02-14 03:41:00,29.5,28.5,29.65,SE,134,1.0,2.0,96,0.00,,---,0.00,VWS V14.01,2013-02-14 08:41:00,
2013-02-14 03:46:00,29.8,28.8,29.65,SE,138,0.0,3.0,96,0.00,,---,0.00,VWS V14.01,2013-02-14 08:46:00,
2013-02-14 03:51:00,29.8,28.8,29.65,SE,135,0.0,3.0,96,0.00,,---,0.00,VWS V14.01,2013-02-14 08:51:00,
2013-02-14 03:56:00,29.8,28.8,29.64,SE,127,0.0,3.0,96,0.00,,---,0.00,VWS V14.01,2013-02-14 08:56:00,
2013-02-14 04:01:00,29.7,28.7,29.64,SE,125,0.0,3.0,96,0.00,,---,0.00,VWS V14.01,2013-02-14 09:01:00,
2013-02-14 04:06:00,29.7,28.7,29.64,SE,125,0.0,3.0,96,0.00,,---,0.00,VWS V14.01,2013-02-14 09:06:00,
2013-02-14 04:11:00,29.8,28.8,29.65,SE,129,0.0,3.0,96,0.00,,---,0.00,VWS V14.01,2013-02-14 09:11:00,
2013-02-14 04:16:00,29.8,28.8,29.65,SE,125,0.0,3.0,96,0.00,,---,0.00,VWS V14.01,2013-02-14 09:16:00,
2013-02-14 04:21:00,29.8,28.8,29.64,ESE,117,0.0,3.0,96,0.00,,---,0.00,VWS V14.01,2013-02-14 09:21:00,
2013-02-14 04:26:00,29.8,28.8,29.64,ESE,114,0.0,3.0,96,0.00,,---,0.00,VWS V14.01,2013-02-14 09:26:00,
2013-02-14 04:30:00,29.9,28.9,29.64,ESE,115,0.0,3.0,96,0.00,,---,0.00,VWS V14.01,2013-02-14 09:30:00,
2013-02-14 04:31:00,29.9,28.9,29.64,ESE,115,0.0,3.0,96,0.00,,---,0.00,VWS V14.01,2013-02-14 09:31:00,
2013-02-14 04:37:00,30.0,29.0,29.64,SE,140,0.0,2.0,96,0.00,,---,0.00,VWS V14.01,2013-02-14 09:37:00,
2013-02-14 04:42:00,30.2,29.2,29.64,SSE,156,1.0,3.0,96,0.00,,---,0.00,VWS V14.01,2013-02-14 09:42:00,
2013-02-14 04:47:00,30.5,29.8,29.64,SSE,160,3.0,5.0,97,0.00,,---,0.00,VWS V14.01,2013-02-14 09:47:00,
2013-02-14 04:52:00,30.6,29.6,29.64,SSE,167,3.0,5.0,96,0.00,,---,0.00,VWS V14.01,2013-02-14 09:52:00,
2013-02-14 04:57:00,30.7,29.7,29.64,South,176,3.0,5.0,96,0.00,,---,0.00,VWS V14.01,2013-02-14 09:57:00,
2013-02-14 05:02:00,30.9,30.1,29.64,South,181,3.0,6.0,97,0.00,,---,0.00,VWS V14.01,2013-02-14 10:02:00,
2013-02-14 05:07:00,31.0,30.2,29.64,South,183,4.0,6.0,97,0.00,,---,0.00,VWS V14.01,2013-02-14 10:07:00,
2013-02-14 05:12:00,31.0,30.0,29.64,South,185,5.0,6.0,96,0.00,,---,0.00,VWS V14.01,2013-02-14 10:12:00,
2013-02-14 05:17:00,31.0,30.0,29.64,SSW,204,7.0,7.0,96,0.00,,---,0.00,VWS V14.01,2013-02-14 10:17:00,
2013-02-14 05:22:00,31.1,30.1,29.64,SW,215,3.0,7.0,96,0.00,,---,0.00,VWS V14.01,2013-02-14 10:22:00,
2013-02-14 05:27:00,31.2,30.2,29.64,SSW,212,5.0,7.0,96,0.00,,---,0.00,VWS V14.01,2013-02-14 10:27:00,
2013-02-14 05:30:00,31.3,30.3,29.64,SW,216,1.0,7.0,96,0.00,,---,0.00,VWS V14.01,2013-02-14 10:30:00,
2013-02-14 05:32:00,31.3,30.3,29.64,SW,216,1.0,1.0,96,0.00,,---,0.00,VWS V14.01,2013-02-14 10:32:00,
2013-02-14 05:37:00,31.2,29.9,29.64,SW,216,0.0,2.0,95,0.00,,---,0.00,VWS V14.01,2013-02-14 10:37:00,
2013-02-14 05:42:00,31.1,29.8,29.64,SW,216,0.0,2.0,95,0.00,,---,0.00,VWS V14.01,2013-02-14 10:42:00,
2013-02-14 05:47:00,31.0,29.7,29.64,SW,216,0.0,2.0,95,0.00,,---,0.00,VWS V14.01,2013-02-14 10:47:00,
2013-02-14 05:52:00,31.0,29.7,29.64,SW,216,0.0,2.0,95,0.00,,---,0.00,VWS V14.01,2013-02-14 10:52:00,
2013-02-14 05:57:00,31.1,29.8,29.64,SW,216,1.0,2.0,95,0.00,,---,0.00,VWS V14.01,2013-02-14 10:57:00,
2013-02-14 06:02:00,31.2,29.9,29.64,SW,216,3.0,3.0,95,0.00,,---,0.00,VWS V14.01,2013-02-14 11:02:00,
2013-02-14 06:07:00,31.4,30.1,29.64,SSW,210,3.0,4.0,95,0.00,,---,0.00,VWS V14.01,2013-02-14 11:07:00,
2013-02-14 06:12:00,31.4,30.1,29.63,SSW,210,1.0,4.0,95,0.00,,---,0.00,VWS V14.01,2013-02-14 11:12:00,
2013-02-14 06:17:00,31.5,30.2,29.64,SSW,209,2.0,4.0,95,0.00,,---,0.00,VWS V14.01,2013-02-14 11:17:00,
2013-02-14 06:22:00,31.5,30.2,29.64,SSW,206,3.0,5.0,95,0.00,,---,0.00,VWS V14.01,2013-02-14 11:22:00,
2013-02-14 06:27:00,31.7,30.4,29.64,SSW,200,3.0,5.0,95,0.00,,---,0.00,VWS V14.01,2013-02-14 11:27:00,
2013-02-14 06:30:00,31.8,30.5,29.64,SSW,194,3.0,6.0,95,0.00,,---,0.00,VWS V14.01,2013-02-14 11:30:00,
2013-02-14 06:32:00,31.9,30.4,29.64,SSW,194,3.0,4.0,94,0.00,,---,0.00,VWS V14.01,2013-02-14 11:32:00,
2013-02-14 06:37:00,31.9,30.4,29.64,SSW,192,1.0,5.0,94,0.00,,---,0.00,VWS V14.01,2013-02-14 11:37:00,
2013-02-14 06:42:00,31.9,30.4,29.63,SSW,192,3.0,5.0,94,0.00,,---,0.00,VWS V14.01,2013-02-14 11:42:00,
2013-02-14 06:47:00,31.9,30.4,29.64,SSW,192,2.0,5.0,94,0.00,,---,0.00,VWS V14.01,2013-02-14 11:47:00,
2013-02-14 06:52:00,31.8,30.3,29.64,SSW,192,1.0,5.0,94,0.00,,---,0.00,VWS V14.01,2013-02-14 11:52:00,
2013-02-14 07:27:00,31.6,30.1,29.64,South,185,3.0,3.0,94,0.00,,---,0.00,VWS V14.01,2013-02-14 12:27:00,
2013-02-14 07:30:00,31.2,30.2,29.65,South,181,2.0,7.0,96,0.00,,---,0.00,VWS V15.00,2013-02-14 12:30:00,
2013-02-14 07:32:00,31.5,30.0,29.64,South,184,3.0,4.0,94,0.00,,---,0.00,VWS V14.01,2013-02-14 12:32:00,
2013-02-14 07:37:00,31.5,30.0,29.64,South,184,2.0,4.0,94,0.00,,---,0.00,VWS V14.01,2013-02-14 12:37:00,
2013-02-14 07:42:00,31.4,29.9,29.64,South,184,3.0,5.0,94,0.00,,---,0.00,VWS V14.01,2013-02-14 12:42:00,
2013-02-14 07:47:00,31.4,29.9,29.64,South,184,3.0,5.0,94,0.00,,---,0.00,VWS V14.01,2013-02-14 12:47:00,
2013-02-14 07:52:00,31.4,29.9,29.64,South,184,3.0,5.0,94,0.00,,---,0.00,VWS V14.01,2013-02-14 12:52:00,
2013-02-14 07:57:00,31.3,29.8,29.64,South,184,3.0,5.0,94,0.00,,---,0.00,VWS V14.01,2013-02-14 12:57:00,
2013-02-14 08:00:00,31.7,30.7,29.65,South,180,1.0,8.0,96,0.00,,---,0.00,VWS V15.00,2013-02-14 13:00:00,
2013-02-14 08:02:00,31.3,30.0,29.65,South,184,2.0,5.0,95,0.00,,---,0.00,VWS V14.01,2013-02-14 13:02:00,
2013-02-14 08:07:00,31.3,30.0,29.65,South,184,3.0,5.0,95,0.00,,---,0.00,VWS V14.01,2013-02-14 13:07:00,
2013-02-14 08:12:00,31.2,29.9,29.65,South,183,1.0,6.0,95,0.00,,---,0.00,VWS V14.01,2013-02-14 13:12:00,
2013-02-14 08:17:00,31.2,29.9,29.65,South,183,3.0,6.0,95,0.00,,---,0.00,VWS V14.01,2013-02-14 13:17:00,
2013-02-14 08:22:00,31.2,29.9,29.64,South,183,5.0,6.0,95,0.00,,---,0.00,VWS V14.01,2013-02-14 13:22:00,
2013-02-14 08:27:00,31.2,30.2,29.64,South,182,3.0,7.0,96,0.00,,---,0.00,VWS V14.01,2013-02-14 13:27:00,
2013-02-14 08:30:00,32.3,31.5,29.64,South,181,5.0,8.0,97,0.00,,---,0.00,VWS V15.00,2013-02-14 13:30:00,
2013-02-14 08:32:00,31.3,30.3,29.64,South,181,4.0,6.0,96,0.00,,---,0.00,VWS V14.01,2013-02-14 13:32:00,
2013-02-14 08:37:00,31.3,30.3,29.65,South,181,1.0,7.0,96,0.00,,---,0.00,VWS V14.01,2013-02-14 13:37:00,
2013-02-14 08:42:00,31.4,30.4,29.65,South,181,4.0,7.0,96,0.00,,---,0.00,VWS V14.01,2013-02-14 13:42:00,
2013-02-14 08:47:00,31.4,30.4,29.65,South,181,2.0,7.0,96,0.00,,---,0.00,VWS V14.01,2013-02-14 13:47:00,
2013-02-14 08:52:00,31.5,30.5,29.65,South,180,3.0,7.0,96,0.00,,---,0.00,VWS V14.01,2013-02-14 13:52:00,
2013-02-14 08:58:00,31.7,30.7,29.65,South,180,0.0,8.0,96,0.00,,---,0.00,VWS V14.01,2013-02-14 13:58:00,
2013-02-14 09:00:00,32.6,31.8,29.64,South,187,6.0,10.0,97,0.00,,---,0.00,VWS V15.00,2013-02-14 14:00:00,
2013-02-14 09:02:00,31.8,30.8,29.65,South,179,4.0,6.0,96,0.00,,---,0.00,VWS V14.01,2013-02-14 14:02:00,
2013-02-14 09:07:00,31.9,30.9,29.65,South,180,5.0,7.0,96,0.00,,---,0.00,VWS V14.01,2013-02-14 14:07:00,
2013-02-14 09:12:00,32.0,31.2,29.65,South,181,3.0,8.0,97,0.00,,---,0.00,VWS V14.01,2013-02-14 14:12:00,
2013-02-14 09:18:00,32.1,31.4,29.65,South,181,1.0,8.0,97,0.00,,---,0.00,VWS V14.01,2013-02-14 14:18:00,
2013-02-14 09:23:00,32.2,31.5,29.64,South,181,1.0,8.0,97,0.00,,---,0.00,VWS V14.01,2013-02-14 14:23:00,
2013-02-14 09:28:00,32.3,31.5,29.64,South,181,4.0,8.0,97,0.00,,---,0.00,VWS V14.01,2013-02-14 14:28:00,
2013-02-14 09:30:00,32.7,31.9,29.64,SSW,193,5.0,10.0,97,0.01,,---,0.01,VWS V15.00,2013-02-14 14:30:00,
2013-02-14 09:33:00,32.3,31.5,29.64,South,182,5.0,6.0,97,0.00,,---,0.00,VWS V14.01,2013-02-14 14:33:00,
2013-02-14 09:38:00,32.4,31.6,29.64,South,182,2.0,6.0,97,0.00,,---,0.00,VWS V14.01,2013-02-14 14:38:00,
2013-02-14 09:43:00,32.4,31.6,29.65,South,183,2.0,7.0,97,0.00,,---,0.00,VWS V14.01,2013-02-14 14:43:00,
2013-02-14 09:48:00,32.4,31.6,29.64,South,188,5.0,10.0,97,0.00,,---,0.00,VWS V14.01,2013-02-14 14:48:00,
2013-02-14 09:53:00,32.5,31.7,29.64,South,184,2.0,10.0,97,0.00,,---,0.00,VWS V14.01,2013-02-14 14:53:00,
2013-02-14 09:58:00,32.6,31.8,29.64,South,187,5.0,10.0,97,0.00,,---,0.00,VWS V14.01,2013-02-14 14:58:00,
2013-02-14 10:00:00,33.2,32.4,29.63,SSW,194,3.0,10.0,97,0.01,,---,0.01,VWS V15.00,2013-02-14 15:00:00,
2013-02-14 10:03:00,32.6,31.8,29.64,South,187,6.0,6.0,97,0.00,,---,0.00,VWS V14.01,2013-02-14 15:03:00,
2013-02-14 10:08:00,32.6,31.8,29.64,South,189,6.0,8.0,97,0.00,,---,0.00,VWS V14.01,2013-02-14 15:08:00,
2013-02-14 10:13:00,32.6,31.8,29.64,South,187,5.0,9.0,97,0.00,,---,0.00,VWS V14.01,2013-02-14 15:13:00,
2013-02-14 10:18:00,32.6,31.8,29.64,SSW,198,10.0,10.0,97,0.00,,---,0.00,VWS V14.01,2013-02-14 15:18:00,
2013-02-14 10:23:00,32.6,31.8,29.64,South,187,5.0,10.0,97,0.00,,---,0.00,VWS V14.01,2013-02-14 15:23:00,
2013-02-14 10:28:00,32.7,31.9,29.64,South,190,5.0,10.0,97,0.00,,---,0.00,VWS V14.01,2013-02-14 15:28:00,
2013-02-14 10:30:00,32.9,31.9,29.63,SSW,204,5.0,12.0,96,0.25,,---,0.25,VWS V15.00,2013-02-14 15:30:00,
2013-02-14 10:33:00,32.7,31.9,29.64,SSW,206,7.0,10.0,97,0.01,,---,0.01,VWS V14.01,2013-02-14 15:33:00,
2013-02-14 10:38:00,32.8,32.0,29.64,SSW,210,0.0,10.0,97,0.01,,---,0.01,VWS V14.01,2013-02-14 15:38:00,
2013-02-14 10:43:00,33.0,32.2,29.64,South,182,7.0,10.0,97,0.01,,---,0.01,VWS V14.01,2013-02-14 15:43:00,
2013-02-14 10:48:00,33.0,32.2,29.64,SSW,192,2.0,10.0,97,0.01,,---,0.01,VWS V14.01,2013-02-14 15:48:00,
2013-02-14 10:53:00,33.1,32.1,29.64,SSW,198,5.0,10.0,96,0.01,,---,0.01,VWS V14.01,2013-02-14 15:53:00,
2013-02-14 10:58:00,33.2,32.4,29.63,SSW,212,2.0,10.0,97,0.01,,---,0.01,VWS V14.01,2013-02-14 15:58:00,
2013-02-14 11:00:00,33.5,32.2,29.63,ESE,112,3.0,7.0,95,0.24,,---,0.25,VWS V15.00,2013-02-14 16:00:00,
2013-02-14 11:03:00,33.2,32.4,29.64,SSW,194,2.0,5.0,97,0.01,,---,0.01,VWS V14.01,2013-02-14 16:03:00,
2013-02-14 11:08:00,33.1,32.3,29.64,SSW,204,5.0,10.0,97,0.01,,---,0.01,VWS V14.01,2013-02-14 16:08:00,
2013-02-14 11:13:00,33.0,32.0,29.63,SSW,207,5.0,12.0,96,0.01,,---,0.01,VWS V14.01,2013-02-14 16:13:00,
2013-02-14 11:18:00,33.4,32.1,29.63,ESE,111,2.0,12.0,95,0.02,,---,0.02,VWS V14.01,2013-02-14 16:18:00,
2013-02-14 11:23:00,33.4,32.1,29.63,ESE,105,1.0,12.0,95,0.02,,---,0.02,VWS V14.01,2013-02-14 16:23:00,
2013-02-14 11:28:00,32.9,31.9,29.63,SSW,196,5.0,12.0,96,0.02,,---,0.02,VWS V14.01,2013-02-14 16:28:00,
2013-02-14 11:30:00,34.5,33.0,29.61,East,80,2.0,6.0,94,0.24,,---,0.25,VWS V15.00,2013-02-14 16:30:00,
2013-02-14 11:33:00,32.9,31.6,29.63,SE,129,0.0,7.0,95,0.24,,---,0.25,VWS V14.01,2013-02-14 16:33:00,
2013-02-14 11:38:00,33.4,32.1,29.63,ESE,107,3.0,7.0,95,0.24,,---,0.25,VWS V14.01,2013-02-14 16:38:00,
2013-02-14 11:43:00,33.4,32.1,29.63,SE,144,5.0,7.0,95,0.24,,---,0.25,VWS V14.01,2013-02-14 16:43:00,
2013-02-14 11:48:00,33.4,32.1,29.63,ESE,113,2.0,7.0,95,0.24,,---,0.25,VWS V14.01,2013-02-14 16:48:00,
2013-02-14 11:53:00,33.4,32.1,29.63,SE,132,2.0,7.0,95,0.24,,---,0.25,VWS V14.01,2013-02-14 16:53:00,
2013-02-14 11:58:00,33.4,32.1,29.63,SSE,158,2.0,7.0,95,0.24,,---,0.25,VWS V14.01,2013-02-14 16:58:00,
2013-02-14 12:00:00,34.4,33.1,29.60,South,187,1.0,8.0,95,0.00,,---,0.25,VWS V15.00,2013-02-14 17:00:00,
2013-02-14 12:04:00,33.4,32.1,29.62,SSE,152,3.0,5.0,95,0.24,,---,0.25,VWS V14.01,2013-02-14 17:04:00,
2013-02-14 12:09:00,33.5,32.2,29.62,SE,146,5.0,5.0,95,0.24,,---,0.25,VWS V14.01,2013-02-14 17:09:00,
2013-02-14 12:14:00,33.7,32.4,29.62,SE,142,3.0,5.0,95,0.24,,---,0.25,VWS V14.01,2013-02-14 17:14:00,
2013-02-14 12:19:00,34.0,32.7,29.62,South,190,3.0,5.0,95,0.24,,---,0.25,VWS V14.01,2013-02-14 17:19:00,
2013-02-14 12:24:00,34.3,33.0,29.61,SSE,156,3.0,5.0,95,0.24,,---,0.25,VWS V14.01,2013-02-14 17:24:00,
2013-02-14 12:29:00,34.5,33.2,29.61,ESE,114,2.0,6.0,95,0.24,,---,0.25,VWS V14.01,2013-02-14 17:29:00,
2013-02-14 12:30:00,34.5,33.2,29.59,South,175,1.0,8.0,95,0.01,,---,0.26,VWS V15.00,2013-02-14 17:30:00,
2013-02-14 12:34:00,34.0,33.0,29.61,SSW,192,4.0,4.0,96,0.00,,---,0.25,VWS V14.01,2013-02-14 17:34:00,
2013-02-14 12:39:00,34.1,33.1,29.61,South,190,1.0,6.0,96,0.00,,---,0.25,VWS V14.01,2013-02-14 17:39:00,
2013-02-14 12:44:00,34.3,33.3,29.61,South,189,4.0,6.0,96,0.00,,---,0.25,VWS V14.01,2013-02-14 17:44:00,
2013-02-14 12:49:00,34.4,33.4,29.61,South,191,5.0,7.0,96,0.00,,---,0.25,VWS V14.01,2013-02-14 17:49:00,
2013-02-14 12:54:00,34.3,33.3,29.60,South,183,0.0,7.0,96,0.00,,---,0.25,VWS V14.01,2013-02-14 17:54:00,
2013-02-14 12:59:00,34.3,33.3,29.60,South,183,7.0,7.0,96,0.00,,---,0.25,VWS V14.01,2013-02-14 17:59:00,
2013-02-14 13:00:00,33.9,32.6,29.59,South,171,2.0,7.0,95,0.02,,---,0.27,VWS V15.00,2013-02-14 18:00:00,
2013-02-14 13:04:00,34.4,33.1,29.60,South,175,5.0,7.0,95,0.00,,---,0.25,VWS V14.01,2013-02-14 18:04:00,
2013-02-14 13:09:00,34.4,33.1,29.60,South,169,0.0,8.0,95,0.00,,---,0.25,VWS V14.01,2013-02-14 18:09:00,
2013-02-14 13:14:00,34.6,33.3,29.60,South,181,1.0,8.0,95,0.00,,---,0.25,VWS V14.01,2013-02-14 18:14:00,
2013-02-14 13:19:00,34.7,33.4,29.60,South,181,2.0,8.0,95,0.00,,---,0.25,VWS V14.01,2013-02-14 18:19:00,
2013-02-14 13:24:00,34.6,33.3,29.60,South,177,0.0,8.0,95,0.00,,---,0.25,VWS V14.01,2013-02-14 18:24:00,
2013-02-14 13:29:00,34.5,33.2,29.59,South,176,0.0,8.0,95,0.00,,---,0.25,VWS V14.01,2013-02-14 18:29:00,
2013-02-14 13:30:00,34.5,33.0,29.59,East,101,0.0,4.0,94,0.03,,---,0.28,VWS V15.00,2013-02-14 18:30:00,
2013-02-14 13:34:00,34.5,33.2,29.59,SSW,194,1.0,6.0,95,0.01,,---,0.26,VWS V14.01,2013-02-14 18:34:00,
2013-02-14 13:39:00,34.5,33.2,29.59,South,179,0.0,6.0,95,0.01,,---,0.26,VWS V14.01,2013-02-14 18:39:00,
2013-02-14 13:44:00,34.5,33.2,29.59,South,180,2.0,6.0,95,0.01,,---,0.26,VWS V14.01,2013-02-14 18:44:00,
2013-02-14 13:49:00,34.3,33.0,29.59,South,174,4.0,6.0,95,0.01,,---,0.26,VWS V14.01,2013-02-14 18:49:00,
2013-02-14 13:54:00,34.1,32.8,29.59,South,173,3.0,6.0,95,0.01,,---,0.26,VWS V14.01,2013-02-14 18:54:00,
2013-02-14 13:59:00,33.9,32.6,29.59,South,171,0.0,7.0,95,0.01,,---,0.26,VWS V14.01,2013-02-14 18:59:00,
2013-02-14 14:00:00,34.6,33.3,29.59,ESE,116,0.0,3.0,95,0.03,,---,0.29,VWS V15.00,2013-02-14 19:00:00,
2013-02-14 14:04:00,34.0,32.7,29.59,South,171,0.0,2.0,95,0.02,,---,0.27,VWS V14.01,2013-02-14 19:04:00,
2013-02-14 14:09:00,34.1,33.1,29.59,South,171,0.0,2.0,96,0.02,,---,0.27,VWS V14.01,2013-02-14 19:09:00,
2013-02-14 14:14:00,34.1,33.1,29.59,South,171,1.0,3.0,96,0.02,,---,0.27,VWS V14.01,2013-02-14 19:14:00,
2013-02-14 14:19:00,34.1,33.1,29.59,South,170,1.0,4.0,96,0.02,,---,0.27,VWS V14.01,2013-02-14 19:19:00,
2013-02-14 14:24:00,34.6,33.0,29.59,East,101,2.0,4.0,94,0.03,,---,0.28,VWS V14.01,2013-02-14 19:24:00,
2013-02-14 14:29:00,34.5,33.0,29.59,East,101,0.0,4.0,94,0.03,,---,0.28,VWS V14.01,2013-02-14 19:29:00,
2013-02-14 14:30:00,34.2,32.9,29.59,ESE,116,1.0,2.0,95,0.02,,---,0.29,VWS V15.00,2013-02-14 19:30:00,
2013-02-14 14:35:00,34.5,33.0,29.59,East,101,2.0,2.0,94,0.02,,---,0.28,VWS V14.01,2013-02-14 19:35:00,
2013-02-14 14:39:00,34.5,33.2,29.59,East,90,1.0,3.0,95,0.02,,---,0.28,VWS V14.01,2013-02-14 19:39:00,
2013-02-14 14:45:00,34.5,33.2,29.58,ESE,117,0.0,3.0,95,0.02,,---,0.28,VWS V14.01,2013-02-14 19:45:00,
2013-02-14 14:50:00,34.6,33.3,29.59,ESE,117,1.0,3.0,95,0.03,,---,0.29,VWS V14.01,2013-02-14 19:50:00,
2013-02-14 14:55:00,34.6,33.0,29.59,ESE,116,0.0,3.0,94,0.03,,---,0.29,VWS V14.01,2013-02-14 19:55:00,
2013-02-14 15:00:00,34.7,33.4,29.59,ESE,116,0.0,3.0,95,0.03,,---,0.29,VWS V14.01,2013-02-14 20:00:00,
2013-02-14 15:05:00,34.7,33.4,29.59,ESE,116,1.0,1.0,95,0.02,,---,0.29,VWS V14.01,2013-02-14 20:05:00,
2013-02-14 15:10:00,34.6,33.0,29.59,ESE,116,0.0,1.0,94,0.02,,---,0.29,VWS V14.01,2013-02-14 20:10:00,
2013-02-14 15:15:00,34.4,33.1,29.58,ESE,116,1.0,2.0,95,0.02,,---,0.29,VWS V14.01,2013-02-14 20:15:00,
2013-02-14 15:20:00,34.3,33.0,29.58,ESE,116,1.0,2.0,95,0.02,,---,0.29,VWS V14.01,2013-02-14 20:20:00,
2013-02-14 15:25:00,34.3,33.0,29.59,ESE,116,0.0,2.0,95,0.02,,---,0.29,VWS V14.01,2013-02-14 20:25:00,
2013-02-14 15:30:00,34.3,33.0,29.59,ESE,116,0.0,2.0,95,0.02,,---,0.29,VWS V14.01,2013-02-14 20:30:00,
2013-02-14 15:35:00,34.2,32.9,29.59,ESE,116,0.0,1.0,95,0.01,,---,0.29,VWS V14.01,2013-02-14 20:35:00,
2013-02-14 15:40:00,33.9,32.6,29.59,ENE,69,2.0,2.0,95,0.01,,---,0.29,VWS V14.01,2013-02-14 20:40:00,
2013-02-14 15:45:00,33.3,31.8,29.59,NNE,33,2.0,3.0,94,0.01,,---,0.29,VWS V14.01,2013-02-14 20:45:00,
2013-02-14 15:50:00,32.9,31.6,29.59,NNE,26,3.0,3.0,95,0.01,,---,0.29,VWS V14.01,2013-02-14 20:50:00,
2013-02-14 15:55:00,32.7,31.4,29.59,NNE,26,3.0,3.0,95,0.02,,---,0.30,VWS V14.01,2013-02-14 20:55:00,
2013-02-14 16:00:00,32.6,31.6,29.59,NNE,26,3.0,4.0,96,0.02,,---,0.30,VWS V14.01,2013-02-14 21:00:00,
2013-02-14 16:05:00,32.6,31.6,29.59,NNE,26,3.0,3.0,96,0.01,,---,0.30,VWS V14.01,2013-02-14 21:05:00,
2013-02-14 16:10:00,32.5,31.5,29.59,NNE,26,3.0,4.0,96,0.01,,---,0.30,VWS V14.01,2013-02-14 21:10:00,
2013-02-14 16:15:00,32.5,31.5,29.59,NNE,26,2.0,4.0,96,0.01,,---,0.30,VWS V14.01,2013-02-14 21:15:00,
2013-02-14 16:20:00,32.6,31.8,29.59,NNE,26,2.0,4.0,97,0.01,,---,0.30,VWS V14.01,2013-02-14 21:20:00,
2013-02-14 16:25:00,32.5,31.7,29.59,NNE,26,2.0,4.0,97,0.01,,---,0.30,VWS V14.01,2013-02-14 21:25:00,
2013-02-14 16:30:00,32.5,31.7,29.59,NNE,18,3.0,4.0,97,0.01,,---,0.30,VWS V14.01,2013-02-14 21:30:00,
2013-02-14 16:35:00,32.5,31.7,29.59,North,10,2.0,4.0,97,0.01,,---,0.30,VWS V14.01,2013-02-14 21:35:00,
2013-02-14 16:40:00,32.4,31.6,29.59,North,10,3.0,4.0,97,0.01,,---,0.30,VWS V14.01,2013-02-14 21:40:00,
2013-02-14 16:45:00,32.4,31.6,29.59,North,9,3.0,4.0,97,0.01,,---,0.30,VWS V14.01,2013-02-14 21:45:00,
2013-02-14 16:50:00,32.3,31.5,29.59,North,9,3.0,4.0,97,0.01,,---,0.30,VWS V14.01,2013-02-14 21:50:00,
2013-02-14 16:55:00,32.3,31.5,29.59,North,9,2.0,4.0,97,0.01,,---,0.30,VWS V14.01,2013-02-14 21:55:00,
2013-02-14 17:00:00,32.3,31.5,29.60,North,9,2.0,4.0,97,0.02,,---,0.31,VWS V14.01,2013-02-14 22:00:00,
2013-02-14 17:05:00,32.3,31.5,29.59,North,9,3.0,3.0,97,0.01,,---,0.31,VWS V14.01,2013-02-14 22:05:00,
2013-02-14 17:10:00,32.2,31.5,29.60,North,9,3.0,3.0,97,0.01,,---,0.31,VWS V14.01,2013-02-14 22:10:00,
2013-02-14 17:15:00,32.2,31.5,29.59,North,9,4.0,4.0,97,0.01,,---,0.31,VWS V14.01,2013-02-14 22:15:00,
2013-02-14 17:20:00,32.2,31.5,29.60,North,360,4.0,4.0,97,0.01,,---,0.31,VWS V14.01,2013-02-14 22:20:00,
2013-02-14 17:25:00,32.1,31.4,29.60,North,360,3.0,4.0,97,0.01,,---,0.31,VWS V14.01,2013-02-14 22:25:00,
2013-02-14 17:30:00,32.1,31.4,29.60,North,354,5.0,5.0,97,0.01,,---,0.31,VWS V14.01,2013-02-14 22:30:00,
2013-02-14 17:35:00,32.1,31.4,29.60,North,354,4.0,5.0,97,0.01,,---,0.31,VWS V14.01,2013-02-14 22:35:00,
2013-02-14 17:40:00,32.1,31.4,29.60,North,354,4.0,5.0,97,0.01,,---,0.31,VWS V14.01,2013-02-14 22:40:00,
2013-02-14 17:45:00,32.0,31.2,29.60,North,354,4.0,5.0,97,0.01,,---,0.31,VWS V14.01,2013-02-14 22:45:00,
2013-02-14 17:50:00,32.0,31.5,29.60,North,354,4.0,5.0,98,0.01,,---,0.31,VWS V14.01,2013-02-14 22:50:00,
2013-02-14 17:55:00,31.9,31.4,29.60,North,355,3.0,5.0,98,0.01,,---,0.31,VWS V14.01,2013-02-14 22:55:00,
2013-02-14 18:00:00,31.9,31.4,29.60,North,355,3.0,5.0,98,0.01,,---,0.31,VWS V14.01,2013-02-14 23:00:00,
2013-02-14 18:05:00,31.9,31.1,29.60,North,2,4.0,5.0,97,0.00,,---,0.31,VWS V14.01,2013-02-14 23:05:00,
2013-02-14 18:10:00,31.9,31.1,29.60,North,4,3.0,5.0,97,0.00,,---,0.31,VWS V14.01,2013-02-14 23:10:00,
2013-02-14 18:15:00,31.9,31.4,29.60,North,354,4.0,5.0,98,0.00,,---,0.31,VWS V14.01,2013-02-14 23:15:00,
2013-02-14 18:21:00,31.9,31.4,29.60,NNW,343,4.0,5.0,98,0.00,,---,0.31,VWS V14.01,2013-02-14 23:21:00,
2013-02-14 18:26:00,31.9,31.4,29.61,NNW,333,4.0,5.0,98,0.00,,---,0.31,VWS V14.01,2013-02-14 23:26:00,
2013-02-14 18:30:00,32.2,31.7,29.62,NNE,21,3.0,7.0,98,0.00,,---,0.31,VWS V15.00,2013-02-14 23:30:00,
2013-02-14 18:31:00,31.9,31.4,29.61,NNW,341,6.0,6.0,98,0.00,,---,0.31,VWS V14.01,2013-02-14 23:31:00,
2013-02-14 18:36:00,32.1,31.6,29.61,East,100,1.0,6.0,98,0.00,,---,0.31,VWS V14.01,2013-02-14 23:36:00,
2013-02-14 18:41:00,32.1,31.6,29.61,East,100,3.0,6.0,98,0.00,,---,0.31,VWS V14.01,2013-02-14 23:41:00,
2013-02-14 18:46:00,32.2,31.7,29.61,East,100,2.0,6.0,98,0.00,,---,0.31,VWS V14.01,2013-02-14 23:46:00,
2013-02-14 18:51:00,32.2,31.7,29.62,ENE,71,3.0,6.0,98,0.00,,---,0.31,VWS V14.01,2013-02-14 23:51:00,
2013-02-14 18:56:00,32.2,31.7,29.62,NE,51,3.0,6.0,98,0.00,,---,0.31,VWS V14.01,2013-02-14 23:56:00,
2013-02-14 19:00:00,32.1,31.6,29.62,West,267,4.0,9.0,98,0.00,,---,0.31,VWS V15.00,2013-02-15 00:00:00,
2013-02-14 19:01:00,32.2,31.7,29.62,NE,40,1.0,6.0,98,0.00,,---,0.31,VWS V14.01,2013-02-15 00:01:00,
2013-02-14 19:06:00,32.2,31.7,29.62,NE,38,4.0,5.0,98,0.00,,---,0.31,VWS V14.01,2013-02-15 00:06:00,
2013-02-14 19:11:00,32.2,31.7,29.62,NNE,27,4.0,5.0,98,0.00,,---,0.31,VWS V14.01,2013-02-15 00:11:00,
2013-02-14 19:16:00,32.2,31.7,29.62,NNE,21,3.0,5.0,98,0.00,,---,0.31,VWS V14.01,2013-02-15 00:16:00,
2013-02-14 19:21:00,32.2,31.7,29.62,NNE,13,5.0,7.0,98,0.00,,---,0.31,VWS V14.01,2013-02-15 00:21:00,
2013-02-14 19:26:00,32.2,31.7,29.62,North,11,2.0,7.0,98,0.00,,---,0.31,VWS V14.01,2013-02-15 00:26:00,
2013-02-14 19:30:00,32.0,31.5,29.62,WSW,256,10.0,13.0,98,0.00,,---,0.31,VWS V15.00,2013-02-15 00:30:00,
2013-02-14 19:31:00,32.2,31.7,29.62,NNE,21,4.0,7.0,98,0.00,,---,0.31,VWS V14.01,2013-02-15 00:31:00,
2013-02-14 19:36:00,32.2,31.7,29.62,North,11,4.0,5.0,98,0.00,,---,0.31,VWS V14.01,2013-02-15 00:36:00,
2013-02-14 19:41:00,32.2,31.7,29.62,NNE,13,5.0,6.0,98,0.00,,---,0.31,VWS V14.01,2013-02-15 00:41:00,
2013-02-14 19:46:00,32.3,31.8,29.62,North,7,5.0,6.0,98,0.00,,---,0.31,VWS V14.01,2013-02-15 00:46:00,
2013-02-14 19:51:00,32.1,31.6,29.62,WNW,296,4.0,7.0,98,0.00,,---,0.31,VWS V14.01,2013-02-15 00:51:00,
2013-02-14 19:56:00,32.1,31.6,29.62,West,272,5.0,7.0,98,0.00,,---,0.31,VWS V14.01,2013-02-15 00:56:00,
2013-02-14 20:00:00,31.5,31.0,29.63,WNW,293,13.0,17.0,98,0.00,,---,0.31,VWS V15.00,2013-02-15 01:00:00,
2013-02-14 20:01:00,32.1,31.6,29.62,West,262,4.0,9.0,98,0.00,,---,0.31,VWS V14.01,2013-02-15 01:01:00,
2013-02-14 20:06:00,32.1,31.6,29.62,West,279,6.0,9.0,98,0.00,,---,0.31,VWS V14.01,2013-02-15 01:06:00,
2013-02-14 20:11:00,32.1,31.6,29.62,West,260,6.0,10.0,98,0.00,,---,0.31,VWS V14.01,2013-02-15 01:11:00,
2013-02-14 20:16:00,32.1,31.6,29.62,WNW,298,8.0,11.0,98,0.00,,---,0.31,VWS V14.01,2013-02-15 01:16:00,
2013-02-14 20:21:00,32.1,31.6,29.62,West,274,9.0,12.0,98,0.00,,---,0.31,VWS V14.01,2013-02-15 01:21:00,
2013-02-14 20:26:00,32.1,31.6,29.62,West,260,9.0,12.0,98,0.00,,---,0.31,VWS V14.01,2013-02-15 01:26:00,
2013-02-14 20:30:00,31.2,30.5,29.64,West,270,10.0,18.0,97,0.00,,---,0.31,VWS V15.00,2013-02-15 01:30:00,
2013-02-14 20:31:00,32.0,31.5,29.62,West,273,11.0,11.0,98,0.00,,---,0.31,VWS V14.01,2013-02-15 01:31:00,
2013-02-14 20:36:00,32.0,31.5,29.62,West,279,7.0,11.0,98,0.00,,---,0.31,VWS V14.01,2013-02-15 01:36:00,
2013-02-14 20:41:00,31.9,31.4,29.62,WNW,289,9.0,12.0,98,0.00,,---,0.31,VWS V14.01,2013-02-15 01:41:00,
2013-02-14 20:46:00,31.8,31.3,29.63,West,266,7.0,14.0,98,0.00,,---,0.31,VWS V14.01,2013-02-15 01:46:00,
2013-02-14 20:51:00,31.7,31.2,29.63,West,279,12.0,14.0,98,0.00,,---,0.31,VWS V14.01,2013-02-15 01:51:00,
2013-02-14 20:56:00,31.6,31.1,29.63,West,281,10.0,17.0,98,0.00,,---,0.31,VWS V14.01,2013-02-15 01:56:00,
2013-02-14 21:00:00,30.3,29.3,29.66,WSW,256,11.0,17.0,96,0.00,,---,0.31,VWS V15.00,2013-02-15 02:00:00,
2013-02-14 21:01:00,31.5,31.0,29.63,WNW,302,13.0,13.0,98,0.00,,---,0.31,VWS V14.01,2013-02-15 02:01:00,
2013-02-14 21:06:00,31.5,31.0,29.64,West,269,9.0,18.0,98,0.00,,---,0.31,VWS V14.01,2013-02-15 02:06:00,
2013-02-14 21:11:00,31.5,30.8,29.64,WSW,256,9.0,18.0,97,0.00,,---,0.31,VWS V14.01,2013-02-15 02:11:00,
2013-02-14 21:16:00,31.5,30.8,29.64,WNW,293,12.0,18.0,97,0.00,,---,0.31,VWS V14.01,2013-02-15 02:16:00,
2013-02-14 21:21:00,31.4,30.6,29.64,West,260,7.0,18.0,97,0.00,,---,0.31,VWS V14.01,2013-02-15 02:21:00,
2013-02-14 21:26:00,31.3,30.5,29.64,West,269,9.0,18.0,97,0.00,,---,0.31,VWS V14.01,2013-02-15 02:26:00,
2013-02-14 21:30:00,28.9,28.2,29.67,North,4,15.0,17.0,97,0.00,,---,0.31,VWS V15.00,2013-02-15 02:30:00,
2013-02-14 21:31:00,31.2,30.5,29.64,WSW,252,7.0,10.0,97,0.00,,---,0.31,VWS V14.01,2013-02-15 02:31:00,
2013-02-14 21:36:00,31.1,30.4,29.65,West,277,7.0,16.0,97,0.00,,---,0.31,VWS V14.01,2013-02-15 02:36:00,
2013-02-14 21:42:00,31.0,30.2,29.64,West,281,6.0,16.0,97,0.00,,---,0.31,VWS V14.01,2013-02-15 02:42:00,
2013-02-14 21:47:00,30.9,30.1,29.65,West,262,9.0,16.0,97,0.00,,---,0.31,VWS V14.01,2013-02-15 02:47:00,
2013-02-14 21:52:00,30.7,29.7,29.65,West,269,12.0,17.0,96,0.00,,---,0.31,VWS V14.01,2013-02-15 02:52:00,
2013-02-14 21:57:00,30.5,29.5,29.65,WNW,283,13.0,17.0,96,0.00,,---,0.31,VWS V14.01,2013-02-15 02:57:00,
2013-02-14 22:00:00,28.1,27.4,29.68,WNW,298,9.0,19.0,97,0.00,,---,0.31,VWS V15.00,2013-02-15 03:00:00,
2013-02-14 22:02:00,30.3,29.3,29.66,West,260,10.0,11.0,96,0.00,,---,0.31,VWS V14.01,2013-02-15 03:02:00,
2013-02-14 22:07:00,30.1,29.1,29.66,NW,325,10.0,15.0,96,0.00,,---,0.31,VWS V14.01,2013-02-15 03:07:00,
2013-02-14 22:12:00,29.9,29.1,29.66,WNW,282,8.0,15.0,97,0.00,,---,0.31,VWS V14.01,2013-02-15 03:12:00,
2013-02-14 22:17:00,29.6,28.9,29.66,WSW,258,17.0,17.0,97,0.00,,---,0.31,VWS V14.01,2013-02-15 03:17:00,
2013-02-14 22:22:00,29.3,28.3,29.67,West,275,8.0,17.0,96,0.00,,---,0.31,VWS V14.01,2013-02-15 03:22:00,
2013-02-14 22:27:00,29.0,28.3,29.67,North,1,13.0,17.0,97,0.00,,---,0.31,VWS V14.01,2013-02-15 03:27:00,
2013-02-14 22:30:00,26.9,25.4,29.70,WNW,291,15.0,22.0,94,0.00,,---,0.31,VWS V15.00,2013-02-15 03:30:00,
2013-02-14 22:32:00,28.8,28.1,29.67,North,9,12.0,15.0,97,0.00,,---,0.31,VWS V14.01,2013-02-15 03:32:00,
2013-02-14 22:37:00,28.9,28.2,29.67,NE,34,11.0,16.0,97,0.00,,---,0.31,VWS V14.01,2013-02-15 03:37:00,
2013-02-14 22:42:00,28.8,28.1,29.67,NNE,18,12.0,16.0,97,0.00,,---,0.31,VWS V14.01,2013-02-15 03:42:00,
2013-02-14 22:47:00,28.4,27.4,29.67,West,279,7.0,19.0,96,0.00,,---,0.31,VWS V14.01,2013-02-15 03:47:00,
2013-02-14 22:52:00,28.3,27.3,29.67,West,277,6.0,19.0,96,0.00,,---,0.31,VWS V14.01,2013-02-15 03:52:00,
2013-02-14 22:57:00,28.2,27.2,29.68,West,273,8.0,19.0,96,0.00,,---,0.31,VWS V14.01,2013-02-15 03:57:00,
2013-02-14 23:00:00,26.1,24.6,29.71,West,278,13.0,17.0,94,0.00,,---,0.31,VWS V15.00,2013-02-15 04:00:00,
2013-02-14 23:02:00,28.1,27.4,29.68,West,263,8.0,11.0,97,0.00,,---,0.31,VWS V14.01,2013-02-15 04:02:00,
2013-02-14 23:07:00,28.0,27.0,29.68,WNW,292,13.0,14.0,96,0.00,,---,0.31,VWS V14.01,2013-02-15 04:07:00,
2013-02-14 23:12:00,27.8,26.8,29.69,WNW,283,14.0,22.0,96,0.00,,---,0.31,VWS V14.01,2013-02-15 04:12:00,
2013-02-14 23:17:00,27.5,26.5,29.69,West,279,12.0,22.0,96,0.00,,---,0.31,VWS V14.01,2013-02-15 04:17:00,
2013-02-14 23:22:00,27.3,26.1,29.69,WNW,302,12.0,22.0,95,0.00,,---,0.31,VWS V14.01,2013-02-15 04:22:00,
2013-02-14 23:27:00,27.0,25.8,29.69,West,260,13.0,22.0,95,0.00,,---,0.31,VWS V14.01,2013-02-15 04:27:00,
2013-02-14 23:30:00,24.8,23.6,29.72,North,357,15.0,18.0,95,0.00,,---,0.00,VWS V15.00,2013-02-15 04:30:00,
2013-02-14 23:32:00,26.8,25.3,29.70,West,277,15.0,17.0,94,0.00,,---,0.31,VWS V14.01,2013-02-15 04:32:00,
2013-02-14 23:37:00,26.5,24.8,29.70,West,278,13.0,17.0,93,0.00,,---,0.31,VWS V14.01,2013-02-15 04:37:00,
2013-02-14 23:42:00,26.3,24.6,29.70,WNW,300,11.0,17.0,93,0.00,,---,0.31,VWS V14.01,2013-02-15 04:42:00,
2013-02-14 23:47:00,26.2,24.5,29.70,West,273,11.0,17.0,93,0.00,,---,0.31,VWS V14.01,2013-02-15 04:47:00,
2013-02-14 23:52:00,26.3,24.8,29.70,West,271,9.0,17.0,94,0.00,,---,0.31,VWS V14.01,2013-02-15 04:52:00,
2013-02-14 23:57:00,26.3,24.8,29.71,WNW,297,15.0,17.0,94,0.00,,---,0.31,VWS V14.01,2013-02-15 04:57:00,